Retour au catalogue

USA 564

ActifMilitaireVLEO
NORAD 65710·PAYLOAD·🇺🇸 United States

Lancé Sep 22, 2025 depuis Vandenberg Space Force Base

Loading…

Prochains Passages (prochaines 24 heures)

TLE

PériméSource: Mike McCants

Époque: Aug 10, 2026, 21:26 UTC

1 65710U 25213G   26222.89346593 0.00000000  00000-0  00000-0 0    06
2 65710  70.0214 249.6989 0003000  49.0480 310.9519 14.96713500    04

Suivez USA 564 en temps réel avec AllMySat

Download on the App Store